Project,Study,Ord_Occ,Event_Num,Cast_ID,Date_Time_UTC,Date_Time_PST,Lat_Dec,Lon_Dec,Sta_ID,Line,Sta,Depth,Pressure,PrQ,Temp1,Temp1Q,Temp2,Temp2Q,TempAve,Salt1,Salt1Q,Salt1_Corr,Salt2,Salt2Q,Salt2_Corr,SaltAve_Corr,Ox1,Ox1Q,Ox1_CruiseCorr,Ox1_StaCorr,Ox2,Ox2Q,Ox2_CruiseCorr,Ox2_StaCorr,OxAve_StaCorr,Ox1uM,Ox1uM_CruiseCorr,Ox1uM_StaCorr,Ox2uM,Ox2uM_CruiseCorr,Ox2uM_StaCorr,OxAveuM_StaCorr,FluorV,FluorQ,EstChl_CruiseCorr,EstChl_StaCorr,ISUSV,ISUSQ,EstNO3_CruiseCorr,EstNO3_StaCorr,SigThetaTS1,SigThetaTS1Q,SigThetaTS2,SigThetaTS2Q,BAT,XMiss,TransQ,pH,pHQ,SPAR,SPARQ,PAR,PARQ,PoT1,PoT2,DynHt,SVA,OxSat1,OxSat2,BTL_Depth,BTL_Temp,SaltB,OxB,OxBuM,Chl-a,Phaeo,NO3,NO2,NH4,PO4,SIL
CalCOFI,2105SH,022,,2105_022u,09-May-2021 00:24:18,08-May-2021 16:24:18,33.25236,-118.24998,090.0 035.0,090.0,035.0,219.000,220.678,,8.5113,,8.4977,,8.5045,34.2028,,34.2040,34.2064,,34.2083,34.2062,1.1401,,1.2584,,1.1636,,1.2647,,,49.597,54.3475,58.5461,50.621,58.6934,59.4936,59.0199,0.0349,,,,0.8735,,0.0000,,26.5740,,26.5788,,,,,,,,,,,8.4884,8.4748,0.4376,149.463,17.383,17.737,,,,,,,,,,,,
CalCOFI,2105SH,022,,2105_022u,09-May-2021 00:24:44,08-May-2021 16:24:44,33.25236,-118.24998,090.0 035.0,090.0,035.0,218.000,219.669,,8.4945,,8.4967,,8.4956,34.2053,,34.2065,34.2053,,34.2072,34.2069,1.1321,,1.2501,,1.1549,,1.2556,,,49.252,53.9868,58.1915,50.241,58.3208,59.1099,58.6507,0.0356,,,,0.8689,,0.0000,,26.5785,,26.5781,,,,,,,,,,,8.4717,8.4739,0.4397,149.008,17.256,17.603,218,8.883,,,67.91,,,,,,,
CalCOFI,2105SH,022,,2105_022u,09-May-2021 00:25:00,08-May-2021 16:25:00,33.25238,-118.25000,090.0 035.0,090.0,035.0,217.000,218.661,,8.5007,,8.5057,,8.5032,34.2040,,34.2052,34.2040,,34.2059,34.2056,1.1367,,1.2549,,1.1487,,1.2492,,,49.450,54.1938,58.3950,49.973,58.5346,58.8393,58.6172,0.0354,,,,0.8679,,0.0000,,26.5765,,26.5757,,,,,,,,,,,8.4779,8.4829,0.4408,149.182,17.327,17.513,,,,,,,,,,,,
CalCOFI,2105SH,022,,2105_022u,09-May-2021 00:25:02,08-May-2021 16:25:02,33.25238,-118.25000,090.0 035.0,090.0,035.0,216.000,217.653,,8.4994,,8.5017,,8.5006,34.2045,,34.2057,34.2046,,34.2065,34.2061,1.1273,,1.2450,,1.1535,,1.2542,,,49.040,53.7652,57.9736,50.180,58.0918,59.0483,58.5110,0.0360,,,,0.8679,,0.0000,,26.5770,,26.5767,,,,,,,,,,,8.4768,8.4791,0.4409,149.109,17.183,17.584,,,,,,,,,,,,
CalCOFI,2105SH,022,,2105_022u,09-May-2021 00:25:02,08-May-2021 16:25:02,33.25238,-118.25000,090.0 035.0,090.0,035.0,215.000,216.645,,8.4957,,8.4913,,8.4935,34.2051,,34.2063,34.2069,,34.2088,34.2076,1.1247,,1.2423,,1.1525,,1.2532,,,48.930,53.6502,57.8606,50.140,57.9730,59.0079,58.4343,0.0352,,,,0.8680,,0.0000,,26.5781,,26.5801,,,,,,,,,,,8.4732,8.4689,0.4409,148.988,17.143,17.566,,,,,,,,,,,,
CalCOFI,2105SH,022,,2105_022u,09-May-2021 00:25:03,08-May-2021 16:25:03,33.25238,-118.25000,090.0 035.0,090.0,035.0,214.000,215.637,,8.4916,,8.4920,,8.4918,34.2052,,34.2064,34.2059,,34.2078,34.2071,1.1286,,1.2464,,1.1506,,1.2512,,,49.101,53.8290,58.0363,50.055,58.1577,58.9221,58.4792,0.0350,,,,0.8680,,0.0000,,26.5787,,26.5793,,,,,,,,,,,8.4692,8.4696,0.4409,148.902,17.202,17.536,,,,,,,,,,,,
CalCOFI,2105SH,022,,2105_022u,09-May-2021 00:25:04,08-May-2021 16:25:04,33.25238,-118.25000,090.0 035.0,090.0,035.0,213.000,214.628,,8.4893,,8.4898,,8.4896,34.2053,,34.2065,34.2059,,34.2078,34.2072,1.1287,,1.2465,,1.1526,,1.2533,,,49.100,53.8279,58.0353,50.144,58.1566,59.0120,58.5237,0.0355,,,,0.8681,,0.0000,,26.5792,,26.5795,,,,,,,,,,,8.4670,8.4675,0.4409,148.841,17.201,17.566,,,,,,,,,,,,
CalCOFI,2105SH,022,,2105_022u,09-May-2021 00:25:05,08-May-2021 16:25:05,33.25238,-118.25000,090.0 035.0,090.0,035.0,212.000,213.620,,8.4875,,8.4898,,8.4887,34.2052,,34.2064,34.2053,,34.2072,34.2068,1.1307,,1.2486,,1.1555,,1.2563,,,49.190,53.9220,58.1278,50.269,58.2538,59.1382,58.6330,0.0504,,,,0.8683,,0.0000,,26.5793,,26.5791,,,,,,,,,,,8.4654,8.4676,0.4409,148.809,17.231,17.610,,,,,,,,,,,,
CalCOFI,2105SH,022,,2105_022u,09-May-2021 00:25:06,08-May-2021 16:25:06,33.25238,-118.25000,090.0 035.0,090.0,035.0,211.000,212.612,,8.4900,,8.4884,,8.4892,34.2044,,34.2056,34.2053,,34.2072,34.2064,1.1363,,1.2544,,1.1535,,1.2542,,,49.432,54.1750,58.3765,50.183,58.5152,59.0513,58.7139,0.0355,,,,0.8688,,0.0000,,26.5783,,26.5793,,,,,,,,,,,8.4679,8.4663,0.4409,148.885,17.317,17.580,,,,,,,,,,,,
CalCOFI,2105SH,022,,2105_022u,09-May-2021 00:25:08,08-May-2021 16:25:08,33.25238,-118.25000,090.0 035.0,090.0,035.0,210.000,211.604,,8.4914,,8.4927,,8.4921,34.2044,,34.2056,34.2046,,34.2065,34.2061,1.1380,,1.2562,,1.1603,,1.2612,,,49.509,54.2555,58.4557,50.477,58.5984,59.3482,58.9020,0.0357,,,,0.8694,,0.0000,,26.5781,,26.5780,,,,,,,,,,,8.4694,8.4707,0.4409,148.889,17.344,17.684,,,,,,,,,,,,
CalCOFI,2105SH,022,,2105_022u,09-May-2021 00:25:09,08-May-2021 16:25:09,33.25239,-118.25000,090.0 035.0,090.0,035.0,209.000,210.596,,8.4960,,8.4951,,8.4956,34.2033,,34.2045,34.2042,,34.2061,34.2053,1.1540,,1.2730,,1.1715,,1.2728,,,50.204,54.9821,59.1700,50.966,59.3490,59.8420,59.5060,0.0349,,,,0.8702,,0.0000,,26.5765,,26.5773,,,,,,,,,,,8.4742,8.4733,0.4409,149.019,17.590,17.856,,,,,,,,,,,,
CalCOFI,2105SH,022,,2105_022u,09-May-2021 00:25:10,08-May-2021 16:25:10,33.25240,-118.25000,090.0 035.0,090.0,035.0,208.000,209.588,,8.5041,,8.4960,,8.5001,34.2010,,34.2022,34.2044,,34.2063,34.2043,1.1759,,1.2959,,1.1922,,1.2943,,,51.158,55.9794,60.1505,51.864,60.3793,60.7488,60.4497,0.0348,,,,0.8712,,0.0000,,26.5734,,26.5773,,,,,,,,,,,8.4823,8.4743,0.4409,149.295,17.927,18.171,,,,,,,,,,,,
CalCOFI,2105SH,022,,2105_022u,09-May-2021 00:25:11,08-May-2021 16:25:11,33.25240,-118.25000,090.0 035.0,090.0,035.0,207.000,208.580,,8.5111,,8.5061,,8.5086,34.2008,,34.2020,34.2030,,34.2049,34.2035,1.2069,,1.3283,,1.2209,,1.3240,,,52.503,57.3854,61.5329,53.112,61.8319,62.0091,61.7710,0.0346,,,,0.8726,,0.0000,,26.5722,,26.5747,,,,,,,,,,,8.4894,8.4845,0.4409,149.400,18.401,18.613,,,,,,,,,,,,
CalCOFI,2105SH,022,,2105_022u,09-May-2021 00:25:12,08-May-2021 16:25:12,33.25240,-118.25000,090.0 035.0,090.0,035.0,206.000,207.571,,8.5598,,8.5199,,8.5399,34.1890,,34.1902,34.2035,,34.2054,34.1978,1.2127,,1.3343,,1.2275,,1.3308,,,52.757,57.6510,61.7939,53.400,62.1062,62.2999,62.0469,0.0346,,,,0.8746,,0.0000,,26.5555,,26.5730,,,,,,,,,,,8.5381,8.4983,0.4409,150.982,18.508,18.719,,,,,,,,,,,,
CalCOFI,2105SH,022,,2105_022u,09-May-2021 00:25:13,08-May-2021 16:25:13,33.25240,-118.25000,090.0 035.0,090.0,035.0,205.000,206.563,,8.5797,,8.5668,,8.5733,34.1898,,34.1910,34.1936,,34.1955,34.1933,1.2082,,1.3296,,1.2230,,1.3262,,,52.564,57.4492,61.5956,53.209,61.8978,62.1070,61.8513,0.0357,,,,0.8768,,0.0000,,26.5530,,26.5579,,,,,,,,,,,8.5581,8.5453,0.4409,151.205,18.449,18.670,,,,,,,,,,,,
CalCOFI,2105SH,022,,2105_022u,09-May-2021 00:25:14,08-May-2021 16:25:14,33.25240,-118.25000,090.0 035.0,090.0,035.0,204.000,205.555,,8.5630,,8.5725,,8.5678,34.1930,,34.1942,34.1910,,34.1929,34.1936,1.2184,,1.3403,,1.2477,,1.3518,,,53.007,57.9123,62.0509,54.282,62.3762,63.1906,62.6208,0.0349,,,,0.8792,,0.0000,,26.5581,,26.5550,,,,,,,,,,,8.5416,8.5510,0.4409,150.698,18.598,19.049,,,,,,,,,,,,
CalCOFI,2105SH,022,,2105_022u,09-May-2021 00:25:14,08-May-2021 16:25:14,33.25240,-118.25000,090.0 035.0,090.0,035.0,203.000,204.547,,8.5589,,8.5447,,8.5518,34.1925,,34.1937,34.1956,,34.1975,34.1956,1.2487,,1.3720,,1.2899,,1.3955,,,54.326,59.2912,63.4065,56.116,63.8007,65.0426,64.2246,0.0354,,,,0.8817,,0.0000,,26.5582,,26.5629,,,,,,,,,,,8.5376,8.5234,0.4409,150.662,19.059,19.681,,,,,,,,,,,,
CalCOFI,2105SH,022,,2105_022u,09-May-2021 00:25:15,08-May-2021 16:25:15,33.25240,-118.25000,090.0 035.0,090.0,035.0,202.000,203.539,,8.5800,,8.5613,,8.5707,34.1882,,34.1894,34.1947,,34.1966,34.1930,1.2906,,1.4158,,1.3228,,1.4296,,,56.149,61.1970,65.2802,57.550,65.7696,66.4907,65.8855,0.0350,,,,0.8845,,0.0000,,26.5517,,26.5596,,,,,,,,,,,8.5587,8.5401,0.4409,151.273,19.707,20.191,,,,,,,,,,,,
CalCOFI,2105SH,022,,2105_022u,09-May-2021 00:25:16,08-May-2021 16:25:16,33.25240,-118.25000,090.0 035.0,090.0,035.0,201.000,202.531,,8.6335,,8.6299,,8.6317,34.1790,,34.1802,34.1858,,34.1877,34.1840,1.3128,,1.4390,,1.3341,,1.4413,,,57.113,62.2047,66.2710,58.039,66.8107,66.9845,66.6278,0.0347,,,,0.8879,,0.0000,,26.5361,,26.5420,,,,,,,,,,,8.6123,8.6087,0.4409,152.747,20.068,20.392,201,8.634,,,62.52,0.011,0.047,30.85,0.026,0.00,2.49,39.55
CalCOFI,2105SH,022,,2105_022u,09-May-2021 00:25:17,08-May-2021 16:25:17,33.25240,-118.25000,090.0 035.0,090.0,035.0,200.000,201.523,,8.7027,,8.6823,,8.6925,34.1756,,34.1768,34.1825,,34.1844,34.1806,1.3092,,1.4353,,1.3367,,1.4440,,,56.957,62.0416,66.1107,58.154,66.6422,67.1006,66.6057,0.0349,,0.0380,0.1188,0.8924,,0.0000,,26.5227,,26.5313,,,,,,,,,,,8.6814,8.6611,0.4409,154.030,20.043,20.456,,,,,,,,,,,,
CalCOFI,2105SH,022,,2105_022u,09-May-2021 00:25:19,08-May-2021 16:25:19,33.25240,-118.25000,090.0 035.0,090.0,035.0,199.000,200.515,,8.6896,,8.7002,,8.6949,34.1776,,34.1788,34.1799,,34.1818,34.1803,1.3052,,1.4311,,1.3452,,1.4528,,,56.786,61.8629,65.9349,58.525,66.4575,67.4752,66.7051,0.0353,,0.0410,0.1202,0.8980,,0.0000,,26.5263,,26.5264,,,,,,,,,,,8.6685,8.6791,0.4409,153.664,19.977,20.594,,,,,,,,,,,,
CalCOFI,2105SH,022,,2105_022u,09-May-2021 00:25:20,08-May-2021 16:25:20,33.25240,-118.25000,090.0 035.0,090.0,035.0,198.000,199.506,,8.6807,,8.6979,,8.6893,34.1793,,34.1805,34.1800,,34.1819,34.1812,1.3209,,1.4475,,1.3608,,1.4689,,,57.467,62.5748,66.6349,59.202,67.1930,68.1589,67.3969,0.0345,,0.0350,0.1174,0.9038,,0.0000,,26.5290,,26.5268,,,,,,,,,,,8.6598,8.6769,0.4409,153.384,20.213,20.831,,,,,,,,,,,,
CalCOFI,2105SH,022,,2105_022u,09-May-2021 00:25:28,08-May-2021 16:25:28,33.25240,-118.25001,090.0 035.0,090.0,035.0,197.000,198.498,,8.7649,,8.7842,,8.7746,34.1724,,34.1736,34.1741,,34.1760,34.1748,1.3720,,1.5009,,1.4018,,1.5114,,,59.692,64.9008,68.9217,60.989,69.5960,69.9634,69.4426,0.0353,,0.0410,0.1202,0.9253,,0.0000,,26.5104,,26.5088,,,,,,,,,,,8.7439,8.7632,0.4424,155.158,21.034,21.500,,,,,,,,,,,,
CalCOFI,2105SH,022,,2105_022u,09-May-2021 00:26:06,08-May-2021 16:26:06,33.25244,-118.25005,090.0 035.0,090.0,035.0,196.000,197.490,,8.8279,,8.8268,,8.8274,34.1681,,34.1693,34.1690,,34.1709,34.1701,1.4147,,1.5456,,1.4320,,1.5427,,,61.549,66.8421,70.8303,62.304,71.6016,71.2913,71.0608,0.0354,,0.0417,0.1205,0.9558,,0.0000,,26.4972,,26.4981,,,,,,,,,,,8.8069,8.8058,0.4500,156.416,21.718,21.984,,,,,,,,,,,,
CalCOFI,2105SH,022,,2105_022u,09-May-2021 00:26:07,08-May-2021 16:26:07,33.25244,-118.25006,090.0 035.0,090.0,035.0,195.000,196.482,,8.8290,,8.8273,,8.8282,34.1682,,34.1694,34.1690,,34.1709,34.1702,1.4201,,1.5512,,1.4376,,1.5485,,,61.783,67.0867,71.0708,62.545,71.8543,71.5347,71.3028,0.0359,,0.0455,0.1223,0.9560,,0.0000,,26.4971,,26.4980,,,,,,,,,,,8.8081,8.8065,0.4499,156.410,21.801,22.069,,,,,,,,,,,,
CalCOFI,2105SH,022,,2105_022u,09-May-2021 00:26:08,08-May-2021 16:26:08,33.25244,-118.25006,090.0 035.0,090.0,035.0,194.000,195.474,,8.8436,,8.8393,,8.8415,34.1657,,34.1669,34.1685,,34.1704,34.1687,1.4184,,1.5495,,1.4379,,1.5488,,,61.711,67.0115,70.9968,62.558,71.7766,71.5478,71.2723,0.0361,,0.0470,0.1230,0.9565,,0.0000,,26.4928,,26.4957,,,,,,,,,,,8.8229,8.8185,0.4499,156.796,21.782,22.079,,,,,,,,,,,,
CalCOFI,2105SH,022,,2105_022u,09-May-2021 00:26:09,08-May-2021 16:26:09,33.25244,-118.25006,090.0 035.0,090.0,035.0,193.000,194.466,,8.8455,,8.8439,,8.8447,34.1669,,34.1681,34.1671,,34.1690,34.1686,1.4205,,1.5517,,1.4394,,1.5503,,,61.803,67.1077,71.0914,62.624,71.8759,71.6145,71.3530,0.0361,,0.0470,0.1230,0.9571,,0.0000,,26.4935,,26.4939,,,,,,,,,,,8.8248,8.8232,0.4499,156.716,21.816,22.105,,,,,,,,,,,,
CalCOFI,2105SH,022,,2105_022u,09-May-2021 00:26:10,08-May-2021 16:26:10,33.25244,-118.25006,090.0 035.0,090.0,035.0,192.000,193.458,,8.8465,,8.8429,,8.8447,34.1671,,34.1683,34.1679,,34.1698,34.1691,1.4173,,1.5483,,1.4382,,1.5491,,,61.663,66.9613,70.9475,62.571,71.7247,71.5610,71.2543,0.0371,,0.0545,0.1265,0.9577,,0.0000,,26.4934,,26.4946,,,,,,,,,,,8.8259,8.8223,0.4499,156.703,21.767,22.086,,,,,,,,,,,,
CalCOFI,2105SH,022,,2105_022u,09-May-2021 00:26:11,08-May-2021 16:26:11,33.25244,-118.25006,090.0 035.0,090.0,035.0,191.000,192.450,,8.8488,,8.8459,,8.8474,34.1668,,34.1680,34.1678,,34.1697,34.1689,1.4165,,1.5475,,1.4388,,1.5497,,,61.626,66.9226,70.9095,62.600,71.6848,71.5902,71.2499,0.0356,,0.0432,0.1212,0.9584,,0.0000,,26.4928,,26.4941,,,,,,,,,,,8.8284,8.8254,0.4499,156.737,21.755,22.097,,,,,,,,,,,,
CalCOFI,2105SH,022,,2105_022u,09-May-2021 00:26:12,08-May-2021 16:26:12,33.25244,-118.25006,090.0 035.0,090.0,035.0,190.000,191.442,,8.8511,,8.8462,,8.8487,34.1671,,34.1683,34.1678,,34.1697,34.1690,1.4180,,1.5490,,1.4444,,1.5555,,,61.694,66.9937,70.9793,62.841,71.7582,71.8336,71.4065,0.0351,,0.0395,0.1195,0.9590,,0.0000,,26.4927,,26.4940,,,,,,,,,,,8.8307,8.8258,0.4499,156.735,21.780,22.182,,,,,,,,,,,,
CalCOFI,2105SH,022,,2105_022u,09-May-2021 00:26:13,08-May-2021 16:26:13,33.25245,-118.25006,090.0 035.0,090.0,035.0,189.000,190.434,,8.8482,,8.8475,,8.8479,34.1673,,34.1685,34.1677,,34.1696,34.1691,1.4239,,1.5552,,1.4393,,1.5502,,,61.950,67.2613,71.2425,62.621,72.0347,71.6115,71.4270,0.0357,,0.0440,0.1216,0.9597,,0.0000,,26.4933,,26.4937,,,,,,,,,,,8.8279,8.8273,0.4499,156.656,21.869,22.105,,,,,,,,,,,,
CalCOFI,2105SH,022,,2105_022u,09-May-2021 00:26:14,08-May-2021 16:26:14,33.25246,-118.25006,090.0 035.0,090.0,035.0,188.000,189.426,,8.8487,,8.8474,,8.8481,34.1671,,34.1683,34.1678,,34.1697,34.1690,1.4175,,1.5485,,1.4448,,1.5559,,,61.670,66.9686,70.9547,62.861,71.7323,71.8538,71.4043,0.0356,,0.0432,0.1212,0.9603,,0.0000,,26.4930,,26.4938,,,,,,,,,,,8.8286,8.8273,0.4499,156.664,21.770,22.190,,,,,,,,,,,,
CalCOFI,2105SH,022,,2105_022u,09-May-2021 00:26:15,08-May-2021 16:26:15,33.25246,-118.25006,090.0 035.0,090.0,035.0,187.000,188.418,,8.8488,,8.8474,,8.8481,34.1673,,34.1685,34.1679,,34.1698,34.1692,1.4160,,1.5470,,1.4502,,1.5615,,,61.604,66.8996,70.8868,63.094,71.6610,72.0891,71.4880,0.0361,,0.0470,0.1230,0.9609,,0.0000,,26.4931,,26.4938,,,,,,,,,,,8.8288,8.8274,0.4499,156.632,21.747,22.272,,,,,,,,,,,,
CalCOFI,2105SH,022,,2105_022u,09-May-2021 00:26:16,08-May-2021 16:26:16,33.25246,-118.25006,090.0 035.0,090.0,035.0,186.000,187.410,,8.8514,,8.8642,,8.8578,34.1675,,34.1687,34.1685,,34.1704,34.1696,1.4220,,1.5532,,1.4510,,1.5623,,,61.866,67.1735,71.1561,63.130,71.9440,72.1254,71.6408,0.0347,,0.0365,0.1181,0.9616,,0.0000,,26.4929,,26.4917,,,,,,,,,,,8.8315,8.8443,0.4499,156.635,21.841,22.294,,,,,,,,,,,,
CalCOFI,2105SH,022,,2105_022u,09-May-2021 00:26:17,08-May-2021 16:26:17,33.25246,-118.25007,090.0 035.0,090.0,035.0,185.000,186.402,,8.8583,,8.8823,,8.8703,34.1672,,34.1684,34.1682,,34.1701,34.1693,1.4257,,1.5571,,1.4528,,1.5642,,,62.028,67.3429,71.3226,63.206,72.1189,72.2022,71.7624,0.0353,,0.0410,0.1202,0.9624,,0.0000,,26.4915,,26.4885,,,,,,,,,,,8.8385,8.8625,0.4499,156.746,21.901,22.329,,,,,,,,,,,,
CalCOFI,2105SH,022,,2105_022u,09-May-2021 00:26:18,08-May-2021 16:26:18,33.25246,-118.25008,090.0 035.0,090.0,035.0,184.000,185.394,,8.8654,,8.8841,,8.8748,34.1662,,34.1674,34.1681,,34.1700,34.1687,1.4304,,1.5620,,1.4482,,1.5594,,,62.234,67.5582,71.5343,63.006,72.3414,72.0002,71.7673,0.0356,,0.0432,0.1212,0.9632,,0.0000,,26.4897,,26.4882,,,,,,,,,,,8.8456,8.8643,0.4499,156.905,21.977,22.259,,,,,,,,,,,,
CalCOFI,2105SH,022,,2105_022u,09-May-2021 00:26:19,08-May-2021 16:26:19,33.25246,-118.25008,090.0 035.0,090.0,035.0,183.000,184.386,,8.8711,,8.8861,,8.8786,34.1676,,34.1688,34.1677,,34.1696,34.1692,1.4292,,1.5608,,1.4524,,1.5638,,,62.181,67.5028,71.4799,63.191,72.2842,72.1870,71.8335,0.0354,,0.0417,0.1205,0.9639,,0.0000,,26.4898,,26.4875,,,,,,,,,,,8.8515,8.8665,0.4499,156.871,21.961,22.326,,,,,,,,,,,,
CalCOFI,2105SH,022,,2105_022u,09-May-2021 00:26:20,08-May-2021 16:26:20,33.25246,-118.25008,090.0 035.0,090.0,035.0,182.000,183.378,,8.8826,,8.8823,,8.8825,34.1664,,34.1676,34.1673,,34.1692,34.1684,1.4310,,1.5626,,1.4571,,1.5687,,,62.260,67.5854,71.5611,63.396,72.3695,72.3941,71.9776,0.0352,,0.0402,0.1198,0.9646,,0.0000,,26.4870,,26.4878,,,,,,,,,,,8.8631,8.8628,0.4499,157.122,21.995,22.396,,,,,,,,,,,,
CalCOFI,2105SH,022,,2105_022u,09-May-2021 00:26:21,08-May-2021 16:26:21,33.25246,-118.25008,090.0 035.0,090.0,035.0,181.000,182.370,,8.8834,,8.8793,,8.8814,34.1661,,34.1673,34.1677,,34.1696,34.1685,1.4370,,1.5689,,1.4528,,1.5642,,,62.519,67.8562,71.8273,63.208,72.6492,72.2042,72.0158,0.0358,,0.0447,0.1219,0.9654,,0.0000,,26.4866,,26.4886,,,,,,,,,,,8.8640,8.8599,0.4499,157.140,22.087,22.328,,,,,,,,,,,,
CalCOFI,2105SH,022,,2105_022u,09-May-2021 00:26:22,08-May-2021 16:26:22,33.25246,-118.25008,090.0 035.0,090.0,035.0,180.000,181.362,,8.9102,,8.8812,,8.8957,34.1638,,34.1650,34.1664,,34.1683,34.1667,1.4463,,1.5786,,1.4593,,1.5709,,,62.927,68.2827,72.2466,63.493,73.0898,72.4920,72.3693,0.0342,,0.0328,0.1163,0.9662,,0.0000,,26.4806,,26.4872,,,,,,,,,,,8.8908,8.8619,0.4499,157.699,22.243,22.430,,,,,,,,,,,,
CalCOFI,2105SH,022,,2105_022u,09-May-2021 00:26:23,08-May-2021 16:26:23,33.25246,-118.25008,090.0 035.0,090.0,035.0,179.000,180.354,,8.9079,,8.8914,,8.8997,34.1668,,34.1680,34.1657,,34.1676,34.1678,1.4562,,1.5890,,1.4661,,1.5780,,,63.357,68.7322,72.6886,63.785,73.5542,72.7869,72.7378,0.0347,,0.0365,0.1181,0.9670,,0.0000,,26.4834,,26.4851,,,,,,,,,,,8.8887,8.8722,0.4499,157.419,22.395,22.538,,,,,,,,,,,,
CalCOFI,2105SH,022,,2105_022u,09-May-2021 00:26:24,08-May-2021 16:26:24,33.25246,-118.25008,090.0 035.0,090.0,035.0,178.000,179.346,,8.9106,,8.8992,,8.9049,34.1658,,34.1670,34.1668,,34.1687,34.1679,1.4673,,1.6006,,1.4800,,1.5924,,,63.837,69.2340,73.1819,64.392,74.0726,73.3998,73.2909,0.0367,,0.0515,0.1251,0.9680,,0.0000,,26.4821,,26.4847,,,,,,,,,,,8.8915,8.8801,0.4499,157.520,22.566,22.756,,,,,,,,,,,,
CalCOFI,2105SH,022,,2105_022u,09-May-2021 00:26:25,08-May-2021 16:26:25,33.25246,-118.25008,090.0 035.0,090.0,035.0,177.000,178.338,,8.9125,,8.8995,,8.9060,34.1629,,34.1641,34.1685,,34.1704,34.1673,1.4779,,1.6117,,1.4963,,1.6093,,,64.300,69.7180,73.6578,65.101,74.5727,74.1158,73.8868,0.0351,,0.0395,0.1195,0.9689,,0.0000,,26.4795,,26.4860,,,,,,,,,,,8.8935,8.8805,0.4499,157.747,22.730,23.007,,,,,,,,,,,,
CalCOFI,2105SH,022,,2105_022u,09-May-2021 00:26:26,08-May-2021 16:26:26,33.25246,-118.25008,090.0 035.0,090.0,035.0,176.000,177.330,,8.9569,,8.9190,,8.9380,34.1564,,34.1576,34.1662,,34.1681,34.1629,1.4770,,1.6107,,1.5029,,1.6161,,,64.263,69.6793,73.6197,65.389,74.5327,74.4066,74.0132,0.0346,,0.0357,0.1177,0.9701,,0.0000,,26.4674,,26.4810,,,,,,,,,,,8.9379,8.9001,0.4499,158.892,22.738,23.119,,,,,,,,,,,,
CalCOFI,2105SH,022,,2105_022u,09-May-2021 00:26:27,08-May-2021 16:26:27,33.25247,-118.25008,090.0 035.0,090.0,035.0,175.000,176.322,,8.9595,,8.9456,,8.9526,34.1595,,34.1607,34.1624,,34.1643,34.1625,1.4802,,1.6141,,1.5055,,1.6188,,,64.402,69.8247,73.7626,65.503,74.6828,74.5217,74.1422,0.0351,,0.0395,0.1195,0.9714,,0.0000,,26.4693,,26.4739,,,,,,,,,,,8.9407,8.9268,0.4499,158.684,22.789,23.172,,,,,,,,,,,,
CalCOFI,2105SH,022,,2105_022u,09-May-2021 00:26:28,08-May-2021 16:26:28,33.25248,-118.25008,090.0 035.0,090.0,035.0,174.000,175.314,,8.9458,,8.9563,,8.9511,34.1608,,34.1620,34.1608,,34.1627,34.1624,1.4848,,1.6189,,1.5059,,1.6192,,,64.599,70.0306,73.9651,65.520,74.8956,74.5389,74.2520,0.0351,,0.0395,0.1195,0.9733,,0.0000,,26.4726,,26.4708,,,,,,,,,,,8.9271,8.9376,0.4499,158.355,22.852,23.183,,,,,,,,,,,,
CalCOFI,2105SH,022,,2105_022u,09-May-2021 00:26:29,08-May-2021 16:26:29,33.25246,-118.25008,090.0 035.0,090.0,035.0,173.000,174.306,,8.9522,,8.9590,,8.9556,34.1606,,34.1618,34.1605,,34.1624,34.1621,1.4879,,1.6221,,1.5051,,1.6184,,,64.735,70.1728,74.1049,65.483,75.0425,74.5016,74.3033,0.0349,,0.0380,0.1188,0.9757,,0.0000,,26.4714,,26.4702,,,,,,,,,,,8.9336,8.9403,0.4499,158.448,22.903,23.171,,,,,,,,,,,,
CalCOFI,2105SH,022,,2105_022u,09-May-2021 00:26:31,08-May-2021 16:26:31,33.25246,-118.25008,090.0 035.0,090.0,035.0,172.000,173.298,,8.9523,,8.9583,,8.9553,34.1606,,34.1618,34.1604,,34.1623,34.1621,1.4869,,1.6211,,1.5174,,1.6311,,,64.692,70.1278,74.0607,66.021,74.9960,75.0448,74.5528,0.0351,,0.0395,0.1195,0.9781,,0.0000,,26.4713,,26.4702,,,,,,,,,,,8.9338,8.9397,0.4499,158.435,22.888,23.361,,,,,,,,,,,,
CalCOFI,2105SH,022,,2105_022u,09-May-2021 00:26:31,08-May-2021 16:26:31,33.25246,-118.25008,090.0 035.0,090.0,035.0,171.000,172.290,,8.9547,,8.9542,,8.9545,34.1600,,34.1612,34.1601,,34.1620,34.1616,1.5048,,1.6398,,1.5287,,1.6428,,,65.473,70.9443,74.8634,66.510,75.8395,75.5386,75.2010,0.0350,,0.0387,0.1191,0.9804,,0.0000,,26.4705,,26.4706,,,,,,,,,,,8.9362,8.9358,0.4499,158.492,23.166,23.532,,,,,,,,,,,,
CalCOFI,2105SH,022,,2105_022u,09-May-2021 00:26:32,08-May-2021 16:26:32,33.25246,-118.25008,090.0 035.0,090.0,035.0,170.000,171.282,,8.9541,,8.9691,,8.9616,34.1597,,34.1609,34.1576,,34.1595,34.1602,1.5266,,1.6626,,1.5429,,1.6575,,,66.422,71.9364,75.8388,67.130,76.8645,76.1647,76.0018,0.0347,,0.0365,0.1181,0.9826,,0.0000,,26.4703,,26.4662,,,,,,,,,,,8.9358,8.9508,0.4499,158.488,23.501,23.759,,,,,,,,,,,,
CalCOFI,2105SH,022,,2105_022u,09-May-2021 00:26:33,08-May-2021 16:26:33,33.25246,-118.25008,090.0 035.0,090.0,035.0,169.000,170.274,,8.9987,,8.9781,,8.9884,34.1500,,34.1512,34.1562,,34.1581,34.1547,1.5370,,1.6735,,1.5656,,1.6810,,,66.875,72.4099,76.3043,68.119,77.3537,77.1634,76.7339,0.0347,,0.0365,0.1181,0.9850,,0.0000,,26.4557,,26.4637,,,,,,,,,,,8.9804,8.9598,0.4499,159.872,23.683,24.113,,,,,,,,,,,,
CalCOFI,2105SH,022,,2105_022u,09-May-2021 00:26:34,08-May-2021 16:26:34,33.25248,-118.25008,090.0 035.0,090.0,035.0,168.000,169.266,,9.0122,,8.9781,,8.9952,34.1523,,34.1535,34.1593,,34.1612,34.1574,1.5492,,1.6863,,1.5900,,1.7063,,,67.405,72.9640,76.8491,69.176,77.9261,78.2308,77.5400,0.0348,,0.0372,0.1184,0.9876,,0.0000,,26.4552,,26.4662,,,,,,,,,,,8.9940,8.9600,0.4499,159.895,23.878,24.488,,,,,,,,,,,,
CalCOFI,2105SH,022,,2105_022u,09-May-2021 00:26:35,08-May-2021 16:26:35,33.25248,-118.25008,090.0 035.0,090.0,035.0,167.000,168.258,,9.0273,,9.0377,,9.0325,34.1514,,34.1526,34.1534,,34.1553,34.1540,1.5675,,1.7054,,1.6023,,1.7191,,,68.202,73.7972,77.6682,69.713,78.7869,78.7731,78.2207,0.0342,,0.0328,0.1163,0.9905,,0.0000,,26.4521,,26.4521,,,,,,,,,,,9.0093,9.0196,0.4499,160.174,24.168,24.710,,,,,,,,,,,,
CalCOFI,2105SH,022,,2105_022u,09-May-2021 00:26:36,08-May-2021 16:26:36,33.25248,-118.25008,090.0 035.0,090.0,035.0,166.000,167.250,,9.0477,,9.0625,,9.0551,34.1485,,34.1497,34.1526,,34.1545,34.1521,1.5832,,1.7218,,1.6062,,1.7231,,,68.885,74.5112,78.3702,69.884,79.5245,78.9458,78.6580,0.0348,,0.0372,0.1184,0.9935,,0.0000,,26.4466,,26.4474,,,,,,,,,,,9.0297,9.0445,0.4499,160.685,24.420,24.783,,,,,,,,,,,,
CalCOFI,2105SH,022,,2105_022u,09-May-2021 00:26:37,08-May-2021 16:26:37,33.25248,-118.25008,090.0 035.0,090.0,035.0,165.000,166.242,,9.0703,,9.0861,,9.0782,34.1472,,34.1484,34.1493,,34.1512,34.1498,1.5937,,1.7328,,1.6117,,1.7288,,,69.342,74.9889,78.8399,70.124,80.0181,79.1881,79.0140,0.0348,,0.0372,0.1184,0.9968,,0.0000,,26.4420,,26.4411,,,,,,,,,,,9.0524,9.0682,0.4499,161.110,24.594,24.881,,,,,,,,,,,,
CalCOFI,2105SH,022,,2105_022u,09-May-2021 00:26:38,08-May-2021 16:26:38,33.25248,-118.25008,090.0 035.0,090.0,035.0,164.000,165.234,,9.0778,,9.0862,,9.0820,34.1467,,34.1479,34.1488,,34.1507,34.1493,1.6092,,1.7490,,1.6233,,1.7408,,,70.013,75.6904,79.5296,70.626,80.7427,79.6951,79.6124,0.0350,,0.0387,0.1191,1.0003,,0.0000,,26.4403,,26.4407,,,,,,,,,,,9.0600,9.0684,0.4499,161.250,24.837,25.059,,,,,,,,,,,,
CalCOFI,2105SH,022,,2105_022u,09-May-2021 00:26:39,08-May-2021 16:26:39,33.25248,-118.25008,090.0 035.0,090.0,035.0,163.000,164.226,,9.0987,,9.0930,,9.0959,34.1455,,34.1467,34.1473,,34.1492,34.1480,1.6191,,1.7594,,1.6397,,1.7578,,,70.445,76.1420,79.9736,71.341,81.2093,80.4171,80.1954,0.0355,,0.0425,0.1209,1.0043,,0.0000,,26.4361,,26.4384,,,,,,,,,,,9.0810,9.0753,0.4499,161.639,25.001,25.316,,,,,,,,,,,,